KD7QQY Weather Reports


Display with metric or nautical units.
time (UTC)temp
F
wind
direction
speed
MPH
gust
MPH
rain 1hr
in
rain 24hr
in
rain mn
in
humidity
%
barometer
mb
20260506155024 51 221 1.0 6.0 0.00 0.00 0.00 91 1018.3
20260506154538 51 200 2.0 5.0 0.00 0.00 0.00 90 1018.2
20260506154027 51 233 1.0 4.0 0.00 0.00 0.00 90 1018.2
20260506153524 51 215 1.0 4.0 0.00 0.00 0.00 90 1018.1
20260506153043 51 244 1.0 4.0 0.00 0.00 0.00 90 1018.3
20260506152523 51 206 1.0 4.0 0.00 0.00 0.00 90 1018.2
20260506152024 51 219 2.0 5.0 0.00 0.00 0.00 90 1018.1
20260506151540 51 221 1.0 5.0 0.00 0.00 0.00 89 1018.1
20260506151023 51 224 2.0 6.0 0.00 0.00 0.00 89 1018.1
20260506150523 51 244 2.0 6.0 0.00 0.00 0.00 89 1017.9
20260506150042 51 214 2.0 6.0 0.00 0.00 0.00 89 1017.9
20260506145523 51 212 0.0 5.0 0.00 0.00 0.00 89 1018.0
20260506145023 51 212 2.0 6.0 0.00 0.00 0.00 89 1017.9
20260506144557 51 234 2.0 6.0 0.00 0.00 0.00 89 1017.8
20260506144028 51 210 3.0 6.0 0.00 0.00 0.00 89 1017.8
20260506143525 51 237 2.0 5.0 0.00 0.00 0.00 89 1017.7
20260506143039 51 242 2.0 5.0 0.00 0.00 0.00 89 1017.6
20260506142525 51 225 2.0 5.0 0.00 0.00 0.00 89 1017.4
20260506142024 51 207 2.0 5.0 0.00 0.00 0.00 89 1017.5
20260506141543 51 208 2.0 4.0 0.00 0.00 0.00 89 1017.3
20260506141024 51 216 1.0 4.0 0.00 0.00 0.00 89 1017.4
20260506140524 51 275 1.0 4.0 0.00 0.00 0.00 89 1017.4
20260506140044 51 238 0.0 3.0 0.00 0.00 0.00 89 1017.4
20260506135526 51 0 0.0 2.0 0.00 0.00 0.00 89 1017.3
20260506135023 51 0 0.0 2.0 0.00 0.00 0.00 89 1017.1
20260506134542 51 290 0.0 3.0 0.00 0.00 0.00 89 1017.2
20260506134025 51 0 0.0 3.0 0.00 0.00 0.00 89 1017.2
20260506133523 51 5 0.0 3.0 0.00 0.00 0.00 89 1017.1
20260506133040 51 0 0.0 3.0 0.00 0.00 0.00 89 1017.1
20260506132525 51 0 0.0 3.0 0.00 0.00 0.00 89 1017.1
20260506132023 51 279 0.0 2.0 0.00 0.00 0.00 89 1017.0
20260506131548 51 274 0.0 2.0 0.00 0.00 0.00 89 1017.1
20260506131027 51 0 0.0 2.0 0.00 0.00 0.00 89 1017.0
20260506130523 51 274 0.0 2.0 0.00 0.00 0.00 89 1017.0
20260506130038 51 0 0.0 3.0 0.00 0.00 0.00 89 1016.8
20260506125522 51 0 1.0 3.0 0.00 0.00 0.00 89 1016.7
20260506125022 51 237 0.0 2.0 0.00 0.00 0.00 89 1016.6
20260506124536 51 237 0.0 3.0 0.00 0.00 0.00 89 1016.7
20260506124026 51 0 0.0 3.0 0.00 0.00 0.00 90 1016.7
20260506123523 51 0 1.0 3.0 0.00 0.00 0.00 90 1016.7
20260506123045 51 0 1.0 3.0 0.00 0.00 0.00 90 1016.9
20260506122523 51 294 1.0 4.0 0.00 0.00 0.00 90 1016.9
20260506122026 51 208 1.0 4.0 0.00 0.00 0.00 90 1016.8
20260506121542 51 217 1.0 4.0 0.00 0.00 0.00 90 1016.8
20260506121024 51 0 0.0 3.0 0.00 0.00 0.00 90 1016.6
20260506120527 51 0 0.0 3.0 0.00 0.00 0.00 90 1016.8
20260506120039 51 252 1.0 4.0 0.00 0.00 0.00 90 1016.7
20260506115523 51 0 0.0 6.0 0.00 0.00 0.00 90 1016.8
20260506115022 51 252 1.0 6.0 0.00 0.00 0.00 90 1016.8
20260506114552 51 288 2.0 7.0 0.00 0.00 0.00 90 1016.8
20260506114024 51 326 1.0 7.0 0.00 0.00 0.00 90 1016.6
20260506113524 51 309 2.0 7.0 0.00 0.00 0.00 90 1016.4
20260506113035 51 0 0.0 4.0 0.00 0.00 0.00 90 1016.5
20260506112523 51 250 1.0 4.0 0.00 0.00 0.00 90 1016.4
20260506112023 51 251 0.0 4.0 0.00 0.00 0.00 90 1016.4
20260506111542 51 251 1.0 4.0 0.00 0.00 0.00 90 1016.5
20260506111023 51 257 1.0 4.0 0.00 0.00 0.00 91 1016.5
20260506110526 51 257 0.0 4.0 0.00 0.00 0.00 91 1016.5
20260506110044 51 257 0.0 4.0 0.00 0.00 0.00 91 1016.5
20260506105527 51 0 1.0 4.0 0.00 0.00 0.00 91 1016.6
20260506105025 51 273 1.0 6.0 0.00 0.00 0.00 91 1016.5
20260506104544 51 304 1.0 8.0 0.00 0.00 0.00 91 1016.4
20260506104023 51 321 3.0 8.0 0.00 0.00 0.00 91 1016.6
20260506103523 51 307 2.0 8.0 0.00 0.00 0.00 91 1016.5
20260506103039 51 297 4.0 9.0 0.00 0.00 0.00 91 1016.4
20260506102523 51 309 4.0 9.0 0.00 0.00 0.00 91 1016.4
20260506102024 51 327 3.0 8.0 0.00 0.00 0.00 92 1016.3
20260506101537 51 321 3.0 7.0 0.00 0.00 0.00 92 1016.2
20260506101024 51 306 1.0 3.0 0.00 0.00 0.00 92 1016.2
20260506100520 51 307 0.0 2.0 0.00 0.00 0.00 92 1016.1
20260506100037 51 0 0.0 3.0 0.00 0.00 0.00 92 1016.0
20260506095524 51 0 0.0 3.0 0.00 0.00 0.00 92 1016.1
20260506095024 51 302 0.0 4.0 0.00 0.00 0.00 92 1016.1
20260506094535 51 0 1.0 4.0 0.00 0.00 0.00 92 1016.1
20260506094023 51 274 1.0 5.0 0.00 0.00 0.00 92 1016.1
20260506093525 51 0 0.0 5.0 0.00 0.00 0.00 92 1016.1
20260506093040 51 238 1.0 5.0 0.00 0.00 0.00 92 1016.1
20260506092526 51 257 2.0 4.0 0.00 0.00 0.00 92 1016.0
20260506092023 51 260 2.0 4.0 0.00 0.00 0.00 92 1016.1
20260506091540 51 286 1.0 6.0 0.00 0.00 0.00 92 1016.1
20260506091024 51 301 2.0 8.0 0.00 0.00 0.00 92 1016.0
20260506090519 51 298 3.0 8.0 0.00 0.00 0.00 92 1015.9
20260506090039 52 290 3.0 8.0 0.00 0.00 0.00 92 1016.0
20260506085523 52 306 1.0 6.0 0.00 0.00 0.00 92 1016.0
20260506085024 52 298 1.0 6.0 0.00 0.00 0.00 92 1015.9
20260506084542 52 228 1.0 4.0 0.00 0.00 0.00 92 1015.8
20260506084024 52 228 1.0 4.0 0.00 0.00 0.00 92 1015.8
20260506083524 52 227 2.0 4.0 0.00 0.00 0.00 91 1015.9
20260506083043 52 0 0.0 4.0 0.00 0.00 0.00 92 1015.7
20260506082523 52 226 0.0 4.0 0.00 0.00 0.00 92 1015.8
20260506082023 52 217 0.0 4.0 0.00 0.00 0.00 91 1015.8
20260506081548 52 234 1.0 4.0 0.00 0.00 0.00 91 1015.8
20260506081023 52 220 2.0 4.0 0.00 0.00 0.00 91 1015.8
20260506080523 52 306 1.0 4.0 0.00 0.00 0.00 91 1015.7
20260506073524 52 0 1.0 4.0 0.00 0.00 0.00 91 1015.5
20260506073047 52 0 1.0 4.0 0.00 0.00 0.00 91 1015.5
20260506072525 52 257 2.0 4.0 0.00 0.00 0.00 91 1015.4
20260506072023 52 265 2.0 3.0 0.00 0.00 0.00 90 1015.4
20260506071536 52 302 0.0 4.0 0.00 0.00 0.00 90 1015.4
20260506071024 52 0 1.0 4.0 0.00 0.00 0.00 90 1015.3
20260506070523 52 317 2.0 4.0 0.00 0.00 0.00 90 1015.3
20260506062023 52 0 0.0 0.0 0.00 0.00 0.00 90 1015.2
20260506061539 52 0 0.0 0.0 0.00 0.00 0.00 90 1015.2
20260506061023 52 0 0.0 1.0 0.00 0.00 0.00 90 1015.2
20260506060523 52 0 0.0 2.0 0.00 0.00 0.00 90 1015.2
20260506051024 52 0 1.0 5.0 0.00 0.00 0.00 90 1015.2
20260506050523 52 0 0.0 5.0 0.00 0.00 0.00 90 1015.2
20260506045024 52 269 1.0 6.0 0.00 0.00 0.00 90 1015.2
20260506044544 52 0 2.0 6.0 0.00 0.00 0.00 90 1015.2
20260506044022 52 303 2.0 7.0 0.00 0.00 0.00 89 1015.1
20260506043523 52 303 3.0 7.0 0.00 0.00 0.00 89 1015.1
20260506043044 52 311 2.0 5.0 0.00 0.00 0.00 89 1015.0
20260506042528 52 0 0.0 3.0 0.00 0.00 0.00 90 1014.9
20260506042025 52 232 1.0 4.0 0.00 0.00 0.00 89 1014.7
20260506041542 53 242 2.0 4.0 0.00 0.00 0.00 89 1014.7
20260506041025 53 269 0.0 3.0 0.00 0.00 0.00 89 1014.7
20260506040525 53 269 0.0 4.0 0.00 0.00 0.00 89 1014.5
20260506040048 53 222 0.0 4.0 0.00 0.00 0.00 89 1014.4
20260506035528 53 229 1.0 4.0 0.00 0.00 0.00 89 1014.3
20260506035025 53 219 2.0 5.0 0.00 0.00 0.00 89 1014.2
20260506034540 53 210 2.0 5.0 0.00 0.00 0.00 89 1014.1
20260506034025 53 198 1.0 4.0 0.00 0.00 0.00 89 1014.0
20260506033525 53 211 1.0 3.0 0.00 0.00 0.00 89 1014.0
20260506033039 53 211 0.0 3.0 0.00 0.00 0.00 88 1014.0
20260506032525 53 0 0.0 5.0 0.00 0.00 0.00 89 1014.0
20260506032028 53 211 1.0 5.0 0.00 0.00 0.00 88 1013.9
20260506031538 53 218 1.0 3.0 0.00 0.00 0.00 89 1014.0
20260506031025 53 203 0.0 4.0 0.00 0.00 0.00 88 1013.9
20260506030527 53 211 0.0 4.0 0.00 0.00 0.00 88 1014.0
20260506030057 53 249 0.0 4.0 0.00 0.00 0.00 88 1014.0
20260506025524 53 249 1.0 4.0 0.00 0.00 0.00 88 1014.0
20260506025027 53 243 0.0 6.0 0.00 0.00 0.00 88 1013.9
20260506024555 53 227 1.0 6.0 0.00 0.00 0.00 88 1013.9
20260506024025 53 231 1.0 6.0 0.00 0.00 0.00 88 1014.0
20260506023525 53 205 0.0 6.0 0.00 0.00 0.00 88 1014.0
20260506023041 53 176 2.0 6.0 0.00 0.00 0.00 87 1013.9
20260506022524 54 0 0.0 2.0 0.00 0.00 0.00 87 1013.9
20260506022024 54 0 0.0 5.0 0.00 0.00 0.00 87 1013.9
20260506021539 54 202 1.0 5.0 0.00 0.00 0.00 87 1013.9
20260506021024 54 211 2.0 5.0 0.00 0.00 0.00 87 1014.0
20260506020529 54 257 0.0 3.0 0.00 0.00 0.00 87 1014.0
20260506020036 54 279 1.0 4.0 0.00 0.00 0.00 87 1014.0
20260506015524 54 233 1.0 4.0 0.00 0.00 0.00 87 1014.0
20260506015024 54 219 2.0 4.0 0.00 0.00 0.00 87 1014.0
20260506014555 54 0 0.0 4.0 0.00 0.00 0.00 87 1013.9
20260506014024 54 0 1.0 4.0 0.00 0.00 0.00 87 1013.9
20260506013523 54 221 1.0 4.0 0.00 0.00 0.00 87 1013.9
20260506013044 54 0 1.0 5.0 0.00 0.00 0.00 87 1013.9
20260506012523 55 250 2.0 5.0 0.00 0.00 0.00 86 1013.9
20260506012023 55 231 0.0 5.0 0.00 0.00 0.00 86 1013.9
20260506011542 55 0 0.0 5.0 0.00 0.00 0.00 86 1013.9
20260506011023 55 234 1.0 5.0 0.00 0.00 0.00 86 1014.0
20260506010523 55 0 1.0 4.0 0.00 0.00 0.00 86 1014.0
20260506010050 55 0 0.0 4.0 0.00 0.00 0.00 86 1014.0
20260506005525 55 240 0.0 7.0 0.00 0.00 0.00 86 1014.0
20260506005023 55 0 1.0 7.0 0.00 0.00 0.00 86 1014.0
20260506004548 56 221 1.0 4.0 0.00 0.00 0.00 86 1014.0
20260506004024 56 246 1.0 4.0 0.00 0.00 0.00 86 1014.0
20260506003523 56 0 1.0 2.0 0.00 0.00 0.00 85 1014.0
20260506003042 56 0 0.0 3.0 0.00 0.00 0.00 86 1014.0
20260506002522 56 292 0.0 3.0 0.00 0.00 0.00 86 1014.0
20260506002023 56 290 1.0 3.0 0.00 0.00 0.00 85 1014.1
20260506001536 56 298 1.0 3.0 0.00 0.00 0.00 85 1014.0
20260506001023 56 298 1.0 3.0 0.00 0.00 0.00 85 1014.1
20260506000524 56 0 1.0 3.0 0.00 0.00 0.00 85 1014.2
20260506000042 57 0 1.0 3.0 0.00 0.00 0.00 86 1014.2
20260505235522 57 310 0.0 3.0 0.00 0.00 0.00 85 1014.2
20260505235022 57 0 0.0 3.0 0.00 0.00 0.00 85 1014.1
20260505234542 57 290 1.0 3.0 0.00 0.00 0.00 86 1014.3
20260505234026 57 271 1.0 6.0 0.00 0.00 0.00 86 1014.3
20260505233524 57 243 0.0 6.0 0.00 0.00 0.00 86 1014.3
20260505233039 57 0 2.0 6.0 0.00 0.00 0.00 85 1014.3
20260505232523 57 250 1.0 5.0 0.00 0.00 0.00 84 1014.4
20260505232024 58 304 1.0 3.0 0.00 0.00 0.00 85 1014.3
20260505231541 57 267 1.0 3.0 0.00 0.00 0.00 86 1014.4
20260505231023 57 280 1.0 5.0 0.00 0.00 0.00 85 1014.4
20260505230522 57 268 1.0 5.0 0.00 0.00 0.00 85 1014.4
20260505230046 57 263 1.0 4.0 0.00 0.00 0.00 85 1014.4
20260505225523 58 0 1.0 4.0 0.00 0.00 0.00 85 1014.5
20260505225026 58 257 1.0 6.0 0.00 0.00 0.00 86 1014.5
20260505224537 58 277 2.0 6.0 0.00 0.00 0.00 85 1014.5
20260505224022 58 216 1.0 5.0 0.00 0.00 0.00 85 1014.4
20260505223522 58 273 1.0 5.0 0.00 0.00 0.00 85 1014.5
20260505223047 58 259 1.0 6.0 0.00 0.00 0.00 86 1014.5
20260505222522 58 0 0.0 6.0 0.00 0.00 0.00 86 1014.6
20260505222024 57 226 2.0 7.0 0.00 0.00 0.00 85 1014.6
20260505221542 58 265 1.0 7.0 0.00 0.00 0.00 86 1014.6
20260505221023 57 234 3.0 7.0 0.00 0.00 0.00 85 1014.7
20260505220523 57 278 2.0 7.0 0.00 0.00 0.00 86 1014.9
20260505220044 57 233 3.0 8.0 0.00 0.00 0.00 84 1014.7
20260505215525 58 244 4.0 8.0 0.00 0.00 0.00 83 1014.9
20260505215025 59 257 2.0 5.0 0.00 0.00 0.00 84 1014.8
20260505214539 59 275 1.0 3.0 0.00 0.00 0.00 85 1014.8
20260505214023 59 277 1.0 8.0 0.00 0.00 0.00 85 1014.8
20260505213527 58 269 2.0 8.0 0.00 0.00 0.00 85 1015.0
20260505213045 58 232 2.0 7.0 0.00 0.00 0.00 85 1015.0
20260505212522 58 239 2.0 6.0 0.00 0.00 0.00 85 1014.9
20260505212023 58 235 2.0 6.0 0.00 0.00 0.00 85 1014.9
20260505211546 58 216 3.0 7.0 0.00 0.00 0.00 84 1014.8
20260505211023 58 252 2.0 7.0 0.00 0.00 0.00 86 1014.9
20260505210522 58 278 2.0 5.0 0.00 0.00 0.00 86 1014.8
20260505210036 58 238 1.0 5.0 0.00 0.00 0.00 86 1014.8
20260505205527 58 209 2.0 5.0 0.00 0.00 0.00 86 1014.9
20260505205023 58 232 1.0 5.0 0.00 0.00 0.00 85 1014.8
20260505204542 58 279 2.0 5.0 0.00 0.00 0.00 87 1014.9
20260505204027 58 276 2.0 5.0 0.00 0.00 0.00 86 1014.9
20260505203523 58 274 1.0 5.0 0.00 0.00 0.00 86 1015.0
20260505203047 58 231 2.0 5.0 0.00 0.00 0.00 85 1015.0
20260505202523 58 217 1.0 5.0 0.00 0.00 0.00 86 1015.0
20260505202023 58 273 1.0 5.0 0.00 0.00 0.00 87 1015.0
20260505201536 57 250 2.0 5.0 0.00 0.00 0.00 87 1014.9
20260505201023 57 239 3.0 6.0 0.00 0.00 0.00 86 1015.0
20260505200523 58 231 1.0 6.0 0.00 0.00 0.00 87 1015.0
20260505200037 57 250 3.0 6.0 0.00 0.00 0.00 86 1015.0
20260505195526 57 213 3.0 6.0 0.00 0.00 0.00 87 1014.8
20260505195022 57 236 2.0 7.0 0.00 0.00 0.00 87 1014.9
20260505194535 57 229 4.0 7.0 0.00 0.00 0.00 86 1014.9
20260505194022 57 254 4.0 7.0 0.00 0.00 0.00 86 1014.9
20260505193525 57 237 2.0 6.0 0.00 0.00 0.00 87 1014.8
20260505193101 57 239 3.0 8.0 0.00 0.00 0.00 88 1014.8
20260505192524 56 274 3.0 8.0 0.00 0.00 0.00 88 1014.9
20260505192023 56 207 4.0 6.0 0.00 0.00 0.00 87 1014.7
20260505191541 56 223 3.0 6.0 0.00 0.00 0.00 88 1014.6
20260505191023 55 225 2.0 5.0 0.00 0.00 0.00 88 1014.6
20260505190522 55 213 3.0 6.0 0.00 0.00 0.00 88 1014.6
20260505190041 56 229 2.0 6.0 0.00 0.00 0.00 89 1014.6
20260505185523 55 216 2.0 7.0 0.00 0.00 0.00 88 1014.7
20260505185025 56 202 3.0 7.0 0.00 0.00 0.00 88 1014.7
20260505184552 56 233 3.0 6.0 0.00 0.00 0.00 89 1014.6
20260505184024 55 232 3.0 6.0 0.00 0.00 0.00 89 1014.6
20260505183524 55 194 3.0 6.0 0.00 0.00 0.00 89 1014.6
20260505183033 55 215 2.0 5.0 0.00 0.00 0.00 89 1014.5
20260505182523 55 225 2.0 5.0 0.00 0.00 0.00 89 1014.5
20260505182023 55 206 2.0 5.0 0.00 0.00 0.00 89 1014.5
20260505181541 55 221 2.0 5.0 0.00 0.00 0.00 89 1014.5
20260505181026 55 200 3.0 5.0 0.00 0.00 0.00 88 1014.5
20260505180524 55 0 2.0 5.0 0.00 0.00 0.00 89 1014.5
20260505180043 55 211 2.0 4.0 0.00 0.00 0.00 89 1014.4
20260505175526 55 211 1.0 4.0 0.00 0.00 0.00 89 1014.4
20260505175024 55 252 1.0 4.0 0.00 0.00 0.00 90 1014.4
20260505174540 55 213 1.0 4.0 0.00 0.00 0.00 90 1014.4
20260505174023 55 213 2.0 5.0 0.00 0.00 0.00 90 1014.4
20260505173527 55 215 2.0 5.0 0.00 0.00 0.00 90 1014.4
20260505173039 55 229 2.0 5.0 0.00 0.00 0.00 91 1014.4
20260505172524 0 215 3.0 0.0 0.00 0.00 0.00 1014.4
20260505170524 54 219 2.0 4.0 0.00 0.00 0.00 91 1013.7
20260505170042 54 227 2.0 4.0 0.00 0.00 0.00 91 1013.7
20260505165524 54 242 1.0 4.0 0.00 0.00 0.00 91 1013.6
20260505165024 54 215 2.0 4.0 0.00 0.00 0.00 91 1013.7
20260505164544 54 223 1.0 4.0 0.00 0.00 0.00 91 1013.7
20260505164024 54 223 1.0 3.0 0.00 0.00 0.00 91 1013.6
20260505163524 54 0 1.0 3.0 0.00 0.00 0.00 91 1013.6
20260505163042 54 0 0.0 3.0 0.00 0.00 0.00 92 1013.6
20260505162523 54 223 1.0 3.0 0.00 0.00 0.00 91 1013.6
20260505162027 54 223 1.0 3.0 0.00 0.00 0.00 91 1013.7
20260505161535 54 223 1.0 3.0 0.00 0.00 0.00 91 1013.6
20260505161024 54 0 0.0 3.0 0.00 0.00 0.00 92 1013.6
20260505160524 54 0 0.0 3.0 0.00 0.00 0.00 93 1013.5